SV1BYK-4 Weather Reports


Display with metric or nautical units.
time (UTC)temp
F
wind
direction
speed
MPH
gust
MPH
rain 1hr
in
rain 24hr
in
rain mn
in
humidity
%
barometer
mb
20260510101540 76 121 1.0 6.0 0.00 0.00 0.00 55 1011.4
20260510100640 77 162 2.0 9.0 0.00 0.00 0.00 52 1011.5
20260510095740 78 213 2.0 6.0 0.00 0.00 0.00 51 1011.7
20260510094839 76 144 2.0 8.0 0.00 0.00 0.00 53 1011.8
20260510093939 77 179 2.0 8.0 0.00 0.00 0.00 52 1012.0
20260510093040 75 243 3.0 8.0 0.00 0.00 0.00 54 1011.8
20260510092139 75 166 4.0 9.0 0.00 0.00 0.00 55 1011.8
20260510091239 76 111 4.0 9.0 0.00 0.00 0.00 52 1011.7
20260510090339 75 142 3.0 7.0 0.00 0.00 0.00 53 1011.9
20260510085439 76 150 2.0 7.0 0.00 0.00 0.00 52 1011.9
20260510084539 75 99 2.0 7.0 0.00 0.00 0.00 55 1011.9
20260510083639 75 141 2.0 7.0 0.00 0.00 0.00 54 1011.9
20260510082739 76 140 2.0 4.0 0.00 0.00 0.00 53 1011.8
20260510081840 74 119 2.0 7.0 0.00 0.00 0.00 54 1011.9
20260510080039 74 119 4.0 7.0 0.00 0.00 0.00 54 1011.8
20260510075140 74 112 3.0 6.0 0.00 0.00 0.00 54 1011.9
20260510074240 74 184 2.0 4.0 0.00 0.00 0.00 54 1011.8
20260510071539 73 211 1.0 4.0 0.00 0.00 0.00 56 1011.9
20260510070639 73 185 1.0 4.0 0.00 0.00 0.00 56 1011.8
20260510065739 72 220 2.0 4.0 0.00 0.00 0.00 58 1011.6
20260510063939 71 204 2.0 6.0 0.00 0.00 0.00 60 1011.6
20260510063039 72 162 2.0 4.0 0.00 0.00 0.00 62 1011.6
20260510062140 70 254 2.0 4.0 0.00 0.00 0.00 65 1011.8
20260510060339 70 139 2.0 4.0 0.00 0.00 0.00 62 1012.1
20260510054539 70 262 2.0 2.0 0.00 0.00 0.00 62 1011.9
20260510053639 69 270 1.0 4.0 0.00 0.00 0.00 63 1011.9
20260510052739 69 270 1.0 2.0 0.00 0.00 0.00 63 1011.8
20260510050939 66 270 1.0 2.0 0.00 0.00 0.00 67 1011.7
20260510050039 67 270 0.0 2.0 0.00 0.00 0.00 65 1011.5
20260510044239 65 270 0.0 2.0 0.00 0.00 0.00 67 1011.4
20260510042439 64 270 0.0 2.0 0.00 0.00 0.00 68 1011.3
20260510041539 64 270 0.0 2.0 0.00 0.00 0.00 68 1011.4
20260510040639 64 270 0.0 2.0 0.00 0.00 0.00 68 1011.2
20260510035739 64 270 0.0 2.0 0.00 0.00 0.00 68 1010.9
20260510034839 64 270 0.0 6.0 0.00 0.00 0.00 68 1010.8
20260510032139 63 270 0.0 2.0 0.00 0.00 0.00 68 1010.6
20260510031239 63 270 0.0 2.0 0.00 0.00 0.00 68 1010.6
20260510030339 63 270 0.0 2.0 0.00 0.00 0.00 68 1010.7
20260510025439 63 270 0.0 2.0 0.00 0.00 0.00 68 1010.6
20260510024539 63 270 0.0 2.0 0.00 0.00 0.00 68 1010.5
20260510023639 63 270 0.0 2.0 0.00 0.00 0.00 67 1010.4
20260510021839 64 270 0.0 2.0 0.00 0.00 0.00 66 1010.4
20260510020939 63 270 0.0 2.0 0.00 0.00 0.00 66 1010.4
20260510020039 64 270 0.0 2.0 0.00 0.00 0.00 66 1010.3
20260510015139 64 270 0.0 2.0 0.00 0.00 0.00 66 1010.4
20260510014239 64 270 0.0 2.0 0.00 0.00 0.00 66 1010.4
20260510013339 64 270 1.0 2.0 0.00 0.00 0.00 66 1010.4
20260510012439 64 270 1.0 2.0 0.00 0.00 0.00 65 1010.3
20260510011539 64 270 0.0 2.0 0.00 0.00 0.00 65 1010.3
20260510003939 65 270 0.0 2.0 0.00 0.00 0.00 64 1010.2
20260510003039 64 0 0.0 0.0 0.00 0.00 0.00 64 1010.3
20260510002139 64 270 0.0 2.0 0.00 0.00 0.00 64 1010.3
20260510001239 64 0 0.0 0.0 0.00 0.00 0.00 64 1010.3
20260509234539 65 270 0.0 2.0 0.00 0.00 0.00 63 1010.4
20260509233639 65 270 0.0 2.0 0.00 0.00 0.00 64 1010.5
20260509232739 65 270 0.0 2.0 0.00 0.00 0.00 65 1010.4
20260509230939 66 270 0.0 2.0 0.00 0.00 0.00 64 1010.6
20260509230039 66 270 1.0 2.0 0.00 0.00 0.00 64 1010.6
20260509225139 66 270 0.0 2.0 0.00 0.00 0.00 63 1010.6
20260509224239 66 270 0.0 2.0 0.00 0.00 0.00 63 1010.7
20260509221539 66 270 1.0 2.0 0.00 0.00 0.00 64 1011.0
20260509220639 66 270 0.0 2.0 0.00 0.00 0.00 63 1010.9
20260509215739 66 270 0.0 2.0 0.00 0.00 0.00 63 1011.0
20260509213939 67 270 1.0 2.0 0.00 0.00 0.00 64 1011.0
20260509211239 68 270 2.0 2.0 0.00 0.00 0.00 63 1010.9
20260509210339 68 270 2.0 2.0 0.00 0.00 0.00 63 1010.9
20260509205439 67 270 0.0 2.0 0.00 0.00 0.00 65 1010.9
20260509204539 67 270 1.0 2.0 0.00 0.00 0.00 65 1010.7
20260509203639 67 270 0.0 2.0 0.00 0.00 0.00 65 1010.8
20260509202739 68 264 0.0 4.0 0.00 0.00 0.00 65 1010.8
20260509201839 67 248 0.0 2.0 0.00 0.00 0.00 65 1010.8
20260509200039 67 0 0.0 0.0 0.00 0.00 0.00 65 1010.7
20260509194239 67 248 0.0 2.0 0.00 0.00 0.00 65 1010.7
20260509193339 68 248 0.0 2.0 0.00 0.00 0.00 64 1010.7
20260509192439 68 242 0.0 2.0 0.00 0.00 0.00 64 1010.9
20260509191539 68 197 1.0 2.0 0.00 0.00 0.00 65 1010.8
20260509190639 68 127 1.0 2.0 0.00 0.00 0.00 64 1010.8
20260509184839 68 98 0.0 4.0 0.00 0.00 0.00 64 1010.9
20260509183939 68 113 1.0 4.0 0.00 0.00 0.00 64 1010.8
20260509183039 68 172 2.0 4.0 0.00 0.00 0.00 64 1010.7
20260509182139 68 101 2.0 4.0 0.00 0.00 0.00 64 1010.7
20260509175439 69 228 2.0 6.0 0.00 0.00 0.00 63 1010.3
20260509174539 69 199 2.0 8.0 0.00 0.00 0.00 62 1010.3
20260509173639 69 239 2.0 8.0 0.00 0.00 0.00 62 1010.1
20260509172739 69 249 3.0 8.0 0.00 0.00 0.00 61 1010.2
20260509171839 69 247 4.0 7.0 0.00 0.00 0.00 60 1010.1
20260509170939 70 274 3.0 11.0 0.00 0.00 0.00 58 1010.1
20260509170039 70 275 5.0 9.0 0.00 0.00 0.00 57 1010.1
20260509164239 71 243 5.0 11.0 0.00 0.00 0.00 55 1010.1
20260509163339 71 270 1.0 11.0 0.00 0.00 0.00 53 1010.2
20260509162439 71 244 4.0 11.0 0.00 0.00 0.00 53 1010.0
20260509160639 73 256 3.0 11.0 0.00 0.00 0.00 48 1010.0
20260509155739 73 242 3.0 11.0 0.00 0.00 0.00 47 1010.0
20260509154839 73 233 4.0 13.0 0.00 0.00 0.00 48 1009.9
20260509153939 74 221 4.0 15.0 0.00 0.00 0.00 46 1010.0
20260509153039 74 251 5.0 13.0 0.00 0.00 0.00 45 1009.8
20260509152139 76 245 4.0 11.0 0.00 0.00 0.00 42 1010.0
20260509150339 76 235 3.0 11.0 0.00 0.00 0.00 41 1010.0
20260509145439 75 262 4.0 14.0 0.00 0.00 0.00 40 1010.2
20260509142739 76 223 4.0 13.0 0.00 0.00 0.00 37 1010.2
20260509141839 76 200 3.0 13.0 0.00 0.00 0.00 35 1010.2
20260509140939 77 124 7.0 13.0 0.00 0.00 0.00 34 1010.3
20260509140039 77 187 3.0 11.0 0.00 0.00 0.00 33 1010.3
20260509135139 78 142 3.0 11.0 0.00 0.00 0.00 32 1010.3
20260509134239 78 141 4.0 13.0 0.00 0.00 0.00 34 1010.4
20260509132439 77 108 7.0 14.0 0.00 0.00 0.00 33 1010.4
20260509131539 77 127 4.0 14.0 0.00 0.00 0.00 32 1010.6
20260509130639 78 123 5.0 13.0 0.00 0.00 0.00 31 1010.6
20260509125739 78 134 7.0 11.0 0.00 0.00 0.00 33 1010.9
20260509124839 78 105 4.0 11.0 0.00 0.00 0.00 33 1010.7
20260509123939 78 157 4.0 13.0 0.00 0.00 0.00 33 1010.9
20260509122139 77 106 6.0 13.0 0.00 0.00 0.00 34 1011.0
20260509120339 77 117 5.0 15.0 0.00 0.00 0.00 35 1011.1
20260509115439 77 123 8.0 11.0 0.00 0.00 0.00 36 1011.2
20260509114539 77 122 4.0 14.0 0.00 0.00 0.00 37 1011.3
20260509112739 77 149 4.0 14.0 0.00 0.00 0.00 38 1011.4
20260509111839 78 206 4.0 14.0 0.00 0.00 0.00 37 1011.6
20260509110939 77 162 4.0 11.0 0.00 0.00 0.00 39 1011.5
20260509104239 77 157 4.0 13.0 0.00 0.00 0.00 39 1011.6
20260509103339 76 127 3.0 8.0 0.00 0.00 0.00 42 1011.7
20260509102439 76 171 4.0 13.0 0.00 0.00 0.00 43 1011.7